User: anonymous   Login
Location: Homewood
(41.1836°S, 175.9581°E)
Time: 12:40:08
(UTC+00:00)
Language:

OAO 3 Rocket - Orbit

View from above orbital plane
View from above orbital plane
View from above satellite
View from above satellite

Ground track
Ground track

The orbit data is extracted from the following two-line orbital elements,

1 06155U 72065B   24175.84015798  .00001545  00000-0  22964-3 0  9999
2 06155  35.0040 354.1729 0034950 171.0943 189.0383 14.74528844749018
Epoch (UTC): 23 June 2024 20:09:49
Eccentricity: 0.0034950
inclination: 35.0040°
perigee height: 622 km
apogee height: 671 km
right ascension of ascending node: 354.1729°
argument of perigee: 171.0943°
revolutions per day: 14.74528844
mean anomaly at epoch: 189.0383°
orbit number at epoch: 74901

The dashed part of the orbit path shows where the satellite is in the earth's shadow,  

DLR